This is the latest recevied weather packets stored in our database for station/object CE3PA-5. If no packets are shown the sender has not sent any weather packets the latest 10 day(s).
| Time | Temp. | Humidity | Pressure | Rain* | Wind** | Luminosity | Snow |
|---|---|---|---|---|---|---|---|
| 1777749948 | 26.11° C | 20% | 757.3 hPa | - | - | - | - |
| 1777749048 | 26.67° C | 20% | 757.2 hPa | - | - | - | - |
| 1777748148 | 27.22° C | 20% | 757.2 hPa | - | - | - | - |
| 1777746347 | 28.89° C | 19% | 757.2 hPa | - | - | - | - |
| 1777745447 | 29.44° C | 19% | 757.2 hPa | - | - | - | - |
| 1777744548 | 30° C | 19% | 757.4 hPa | - | - | - | - |
| 1777743650 | 30.56° C | 18% | 757.4 hPa | - | - | - | - |
| 1777742750 | 30.56° C | 18% | 757.4 hPa | - | - | - | - |
| 1777741851 | 31.11° C | 18% | 757.5 hPa | - | - | - | - |
| 1777740950 | 32.22° C | 18% | 757.5 hPa | - | - | - | - |
| 1777740050 | 32.78° C | 17% | 757.7 hPa | - | - | - | - |
| 1777739150 | 32.78° C | 17% | 757.7 hPa | - | - | - | - |
| 1777738250 | 32.22° C | 17% | 757.9 hPa | - | - | - | - |
| 1777737349 | 31.67° C | 17% | 757.9 hPa | - | - | - | - |
| 1777736450 | 31.67° C | 17% | 758 hPa | - | - | - | - |
| 1777735550 | 31.11° C | 16% | 758 hPa | - | - | - | - |
| 1777734649 | 30° C | 16% | 758 hPa | - | - | - | - |
| 1777733749 | 28.89° C | 16% | 758.1 hPa | - | - | - | - |
| 1777732849 | 27.78° C | 16% | 758.1 hPa | - | - | - | - |
| 1777731949 | 26.67° C | 17% | 758.2 hPa | - | - | - | - |
| 1777731048 | 25.56° C | 17% | 758.2 hPa | - | - | - | - |
| 1777730149 | 24.44° C | 17% | 758.2 hPa | - | - | - | - |
| 1777729249 | 22.78° C | 17% | 758.2 hPa | - | - | - | - |
| 1777728348 | 20.56° C | 18% | 758.2 hPa | - | - | - | - |
| 1777727448 | 17.78° C | 18% | 758.1 hPa | - | - | - | - |
* Rain since midnight (hover to see other rain measurements)
** Current wind speed in m/s (hover to see current wind gust speed)